This is the latest recevied weather packets stored in our database for station/object KG7FOQ-13. If no packets are shown the sender has not sent any weather packets the latest 10 day(s).
| Time | Temp. | Humidity | Pressure | Rain* | Wind** | Luminosity | Snow |
|---|---|---|---|---|---|---|---|
| 1778189973 | 21.11° C | 31% | 1014.1 hPa | 0 mm | - | - | - |
| 1778189716 | 21.11° C | 30% | 1014.1 hPa | 0 mm | - | - | - |
| 1778189672 | 21.11° C | 30% | 1014.1 hPa | 0 mm | - | - | - |
| 1778189371 | 21.67° C | 33% | 1014.2 hPa | 0 mm | - | - | - |
| 1778188770 | 21.11° C | 34% | 1014.4 hPa | 0 mm | - | - | - |
| 1778188168 | 20.56° C | 34% | 1014.7 hPa | 0 mm | - | - | - |
| 1778187598 | 20.56° C | 33% | 1014.8 hPa | 0 mm | - | - | - |
| 1778187567 | 20.56° C | 33% | 1014.8 hPa | 0 mm | - | - | - |
| 1778187267 | 20.56° C | 33% | 1014.9 hPa | 0 mm | - | - | - |
| 1778187008 | 20.56° C | 35% | 1014.9 hPa | 0 mm | - | - | - |
| 1778186966 | 20.56° C | 35% | 1014.9 hPa | 0 mm | - | - | - |
| 1778186666 | 20.56° C | 35% | 1014.9 hPa | 0 mm | - | - | - |
| 1778186366 | 20° C | 35% | 1014.9 hPa | 0 mm | - | - | - |
| 1778186065 | 20° C | 34% | 1014.9 hPa | 0 mm | - | - | - |
| 1778185764 | 20.56° C | 34% | 1014.9 hPa | 0 mm | - | - | - |
| 1778185463 | 20° C | 34% | 1015 hPa | 0 mm | - | - | - |
| 1778184861 | 20.56° C | 33% | 1015 hPa | 0 mm | - | - | - |
| 1778184560 | 20.56° C | 35% | 1015.1 hPa | 0 mm | - | - | - |
| 1778184259 | 20° C | 33% | 1015 hPa | 0 mm | - | - | - |
| 1778183958 | 20° C | 34% | 1015.1 hPa | 0 mm | - | - | - |
| 1778183657 | 20° C | 33% | 1015.1 hPa | 0 mm | - | - | - |
| 1778183357 | 20° C | 33% | 1015.1 hPa | 0 mm | - | - | - |
| 1778182755 | 20° C | 35% | 1015.3 hPa | 0 mm | - | - | - |
| 1778182454 | 20° C | 34% | 1015.3 hPa | 0 mm | - | - | - |
| 1778182191 | 20° C | 35% | 1015.3 hPa | 0 mm | - | - | - |
* Rain latest hour (hover to see other rain measurements)
** Current wind speed in m/s (hover to see current wind gust speed)